Regional Weather Roundup
Issued by NWS New Orleans/Baton Rouge, LA

Home | Current Version | Previous Version | Graphics & Text | Print | Product List | Glossary On
Versions: 1 2 3 4 5 6 7 8 9 10 11 12 13 14 15 16 17 18 19 20 21 22 23 24 25 26 27 28 29 30 31 32 33 34 35 36 37 38 39 40 41 42 43 44 45 46 47 48 49 50
272
ASUS44 KLIX 011310
RWRLIX
NEW ORLEANS REGIONAL WEATHER ROUNDUP
NATIONAL WEATHER SERVICE NEW ORLEANS LA
800 AM CDT FRI AUG 01 2014

NOTE: "FAIR" INDICATES FEW OR NO CLOUDS BELOW 12,000 FEET WITH NO
      SIGNIFICANT WEATHER AND/OR OBSTRUCTIONS TO VISIBILITY.
      SKY/WX - SKY CONDITION AND SIGNIFICANT WEATHER.
      TMP - AIR TEMPERATURE.     DP    - DEWPOINT TEMPERATURE.
      RH  - RELATIVE HUMIDITY.   PRES  - PRESSURE.
      HI  - HEAT INDEX.          WCI   - WIND CHILL INDEX.

*  THESE STATIONS ARE NOT NWS OR FAA STATIONS AND ARE NOT UNDER
   NWS QUALITY CONTROL.

LAZ038-040-048-061>063-065>067-069-011400-
SOUTHEAST LOUISIANA

CITY           SKY/WX    TMP DP  RH WIND       PRES   REMARKS
N.O. AUDUBON     N/A     82  70  67 MISG        N/A
N.O. INTL ARPT CLOUDY    80  70  71 E3        30.00R
N.O. LAKEFRONT CLOUDY    80  70  71 E7        30.01R
N.O. DOWNTOWN*   N/A     81  66  61 NE6       30.02R
SLIDELL        CLOUDY    74  68  81 NE3       30.01R
BATON ROUGE    CLOUDY    74  68  81 E7        29.98F
BOOTHVILLE     CLOUDY    79  73  82 CALM      30.02R
BELLE CHASSE   CLOUDY    78  71  79 CALM      30.00R HAZE
BOGALUSA*        N/A     74  68  82 CALM      30.03S
GALLIANO*      NOT AVBL
NEW ROADS*       N/A     74  69  82 CALM      29.98S
GONZALES*        N/A     76  74  95 CALM      29.99S
HAMMOND*       CLOUDY    75  66  73 CALM      30.02S
HOUMA*         MOSUNNY   77  72  83 CALM      29.99S
PORT FOURCHON* SUNNY     82  66  57 SE5       30.01S

$$

MSZ070-080>082-011400-
SOUTHERN MISSISSIPPI

CITY           SKY/WX    TMP DP  RH WIND       PRES   REMARKS
MCCOMB         CLOUDY    71  67  87 NE5       30.03R
GULFPORT       CLOUDY    78  66  66 NE3       30.01R
BILOXI         CLOUDY    73  66  78 NE5       30.02R
PASCAGOULA     CLOUDY    72  69  90 CALM      30.02R
STENNIS ARPT*  PTSUNNY  N/A N/A N/A CALM      30.02R

$$

COASTAL OBSERVATIONS
LAKE AND NEARSHORE STATIONS

STATION/POSITION TIME  TEMP    WIND        PRES    WAVE
                       AIR SEA DIR/SP/G            HT/PER
                 (UTC) (F)     (DEG/KT/KT) (MB)    (FT/S)
PASCAGOULA       1300   75      10/  5/  7 1015.8
WAVELAND YACHT   1300   76      30/  3/  4 1015.6
GRAND ISLE       1300   82 86  120/  2/  4 1016.4
SOUTHWEST PASS   1300   83 85   60/  5/  5 1016.3
NEW CANAL        1300   79 82   90/  1/  2 1016.5
SHELL BEACH      1300   80 81   70/  6/  7 1015.8

OFFSHORE STATIONS

STATION/POSITION TIME  TEMP    WIND        PRES    WAVE
                       AIR SEA DIR/SP/G            HT/PER
                 (UTC) (F)     (DEG/KT/KT) (MB)    (FT/S)
64 S DAUPHIN ISL 1154   82 84   CALM  /  4 1016.0

$$




USA.gov is the U.S. government's official web portal to all federal, state and local government web resources and services.